TimeEST,TemperatureF,Dew PointF,Humidity,Sea Level PressureIn,VisibilityMPH,Wind Direction,Wind SpeedMPH,Gust SpeedMPH,PrecipitationIn,Events,Conditions,WindDirDegrees,DateUTC
12:51 AM,39.0,33.1,79,30.03,10.0,North,5.8,-,N/A,,Partly Cloudy,360,2013-12-04 05:51:00
1:51 AM,37.9,32.0,79,30.05,10.0,Calm,Calm,-,N/A,,Scattered Clouds,0,2013-12-04 06:51:00
2:51 AM,37.9,34.0,86,30.06,9.0,North,4.6,-,N/A,,Mostly Cloudy,360,2013-12-04 07:51:00
3:51 AM,39.0,34.0,82,30.06,9.0,North,4.6,-,N/A,,Mostly Cloudy,10,2013-12-04 08:51:00
4:51 AM,39.9,34.0,79,30.07,8.0,Calm,Calm,-,N/A,,Overcast,0,2013-12-04 09:51:00
5:51 AM,39.9,34.0,79,30.10,8.0,North,3.5,-,N/A,,Overcast,360,2013-12-04 10:51:00
6:51 AM,39.9,33.1,77,30.11,9.0,North,4.6,-,N/A,,Mostly Cloudy,10,2013-12-04 11:51:00
7:51 AM,39.0,34.0,82,30.12,8.0,ENE,3.5,-,N/A,,Mostly Cloudy,60,2013-12-04 12:51:00
8:51 AM,42.1,35.1,76,30.11,8.0,ENE,6.9,-,N/A,,Mostly Cloudy,60,2013-12-04 13:51:00
9:51 AM,46.0,35.1,66,30.13,8.0,Calm,Calm,-,N/A,,Scattered Clouds,0,2013-12-04 14:51:00
10:51 AM,48.9,35.1,59,30.14,8.0,ESE,4.6,-,N/A,,Scattered Clouds,120,2013-12-04 15:51:00
11:51 AM,50.0,36.0,59,30.14,8.0,Calm,Calm,-,N/A,,Mostly Cloudy,0,2013-12-04 16:51:00
12:51 PM,48.9,37.0,64,30.11,9.0,Calm,Calm,-,N/A,,Overcast,0,2013-12-04 17:51:00
1:51 PM,50.0,39.0,66,30.09,8.0,East,3.5,-,N/A,,Mostly Cloudy,100,2013-12-04 18:51:00
2:51 PM,50.0,39.9,68,30.10,9.0,East,4.6,-,N/A,,Mostly Cloudy,90,2013-12-04 19:51:00
3:51 PM,50.0,39.9,68,30.12,9.0,East,4.6,-,N/A,,Overcast,80,2013-12-04 20:51:00
4:51 PM,48.0,39.9,74,30.11,8.0,East,5.8,-,N/A,,Mostly Cloudy,100,2013-12-04 21:51:00
5:51 PM,46.9,39.9,77,30.14,8.0,ENE,4.6,-,N/A,,Mostly Cloudy,60,2013-12-04 22:51:00
6:51 PM,48.0,41.0,77,30.15,8.0,ENE,5.8,-,N/A,,Overcast,70,2013-12-04 23:51:00
7:51 PM,46.0,39.9,79,30.15,8.0,ENE,4.6,-,N/A,,Scattered Clouds,70,2013-12-05 00:51:00
8:51 PM,48.0,42.1,80,30.14,8.0,ENE,6.9,-,N/A,,Mostly Cloudy,60,2013-12-05 01:51:00
9:51 PM,45.0,41.0,86,30.14,7.0,ENE,4.6,-,N/A,,Mostly Cloudy,60,2013-12-05 02:51:00
10:51 PM,48.0,44.1,86,30.14,6.0,ENE,4.6,-,N/A,,Overcast,70,2013-12-05 03:51:00
11:11 PM,48.2,44.6,87,30.14,6.0,ENE,5.8,-,N/A,,Overcast,60,2013-12-05 04:11:00
11:51 PM,48.9,45.0,86,30.13,5.0,NE,6.9,-,N/A,,Mostly Cloudy,50,2013-12-05 04:51:00